Location: Allen Lane School
(37.8198°N, 89.7382°W)
Time: 23:53:10
(UTC+00:00)

USA 215 - Visible Passes

Search period start: 27 June 2022 00:00
Search period end: 07 July 2022 00:00
Orbit: 1099 x 1108 km, 123.0° (Epoch: 10 June)

Date Brightness Start Highest point End Pass type
(mag) Time Alt. Az. Time Alt. Az. Time Alt. Az.
27 Jun 5.1 07:03:54 10° E 07:07:05 14° ESE 07:07:36 14° SE visible
27 Jun 3.4 08:44:12 10° NE 08:50:44 69° SE 08:54:56 24° SSW visible
28 Jun 4.2 08:02:00 10° ENE 08:07:48 33° SE 08:10:24 25° SSE visible
28 Jun 3.5 09:44:32 10° NE 09:50:59 64° NW 09:57:26 10° WSW visible
29 Jun 5.1 07:21:24 10° E 07:24:38 14° ESE 07:25:52 13° SE visible
29 Jun 3.4 09:01:46 10° NE 09:08:17 70° SE 09:13:13 19° SSW visible
30 Jun 4.3 08:19:32 10° ENE 08:25:21 33° SE 08:28:42 21° S visible
30 Jun 3.5 10:02:05 10° NE 10:08:32 63° NW 10:14:58 10° WSW visible
01 Jul 5.1 07:38:54 10° E 07:42:11 14° ESE 07:44:11 13° SE visible
01 Jul 3.4 09:19:18 10° NE 09:25:50 70° SE 09:31:32 14° SW visible
02 Jul 4.3 08:37:05 10° ENE 08:42:54 34° SE 08:47:03 17° S visible
03 Jul 5.2 07:56:25 10° E 07:59:45 14° ESE 08:02:34 11° SSE visible
03 Jul 3.4 09:36:51 10° NE 09:43:23 70° SE 09:49:54 10° SW visible
04 Jul 4.3 08:54:37 10° ENE 09:00:27 34° SE 09:05:28 13° S visible
05 Jul 5.2 08:13:56 10° E 08:17:18 15° ESE 08:20:39 10° SSE visible
05 Jul 3.5 09:54:24 10° NE 10:00:56 71° SE 10:07:27 10° SW visible
06 Jul 4.4 09:12:10 10° ENE 09:18:00 34° SE 09:23:48 10° S visible
